Theta_e
331 332 333 332 332 332 332 332 329 328 330 334 334 333 331 332 331 333 333 329 327 328 326 322 322 321 323 325 323 323 322 322 321 319 314 318 319 316 320 325 325 323 322
328 330 331 331 331 331 331 331 332 330 328 328 329 329 330 330 330 329 332 333 328 327 328 328 327 324 324 326 326 326 324 323 320 320 319 313 320 317 317 324 324 323 320
318 322 326 327 326 328 330 330 330 330 331 331 330 330 329 328 327 328 328 333 333 328 327 328 328 328 328 326 327 328 327 327 324 319 321 318 317 317 314 318 324 323 322
304 306 309 313 315 318 322 325 328 329 329 329 329 329 331 331 330 328 326 328 330 331 328 328 328 328 328 327 329 331 331 329 327 325 319 321 315 318 315 315 318 326 324
298 298 299 299 300 301 303 307 312 316 320 321 321 321 320 320 322 329 330 327 328 330 331 328 328 328 328 328 328 326 330 330 329 325 320 321 318 316 319 314 316 321 325
297 297 298 298 298 298 299 299 300 300 301 303 305 307 310 312 313 315 319 328 327 327 331 331 331 329 328 328 328 328 327 327 328 324 323 321 320 313 313 317 314 315 322
296 296 296 297 297 297 298 298 298 299 299 300 300 301 301 301 302 304 309 313 322 327 329 331 331 331 331 329 329 329 328 328 328 326 323 321 323 323 320 315 312 314 314
294 294 295 295 295 296 297 297 297 298 298 298 298 299 302 307 306 302 301 305 314 319 324 327 329 331 330 332 331 329 329 328 328 328 327 324 322 321 325 324 320 314 315
293 293 294 294 294 295 295 296 296 296 297 297 298 299 304 308 310 307 309 312 318 321 323 326 327 328 329 331 330 330 330 329 328 328 328 328 327 326 322 324 325 322 317
291 291 292 292 293 293 293 294 295 295 295 296 296 296 297 299 300 303 304 313 310 311 313 319 324 325 324 326 327 328 330 329 329 328 327 327 328 328 326 324 323 325 324
290 290 290 291 291 292 292 292 293 293 294 294 295 296 296 296 296 297 300 302 301 307 312 313 316 321 322 321 321 323 325 327 328 329 328 327 327 328 328 327 326 323 321
289 289 289 289 290 290 290 291 291 292 293 293 294 294 294 295 298 297 299 299 298 299 300 306 313 316 317 319 318 318 321 324 324 325 327 327 327 327 327 327 327 327 326
287 288 288 288 288 289 289 290 290 291 291 292 292 293 293 294 294 294 294 295 296 297 298 298 298 299 308 312 313 318 320 320 321 322 325 326 326 326 326 327 326 326 326
286 287 287 287 287 287 288 288 288 289 290 290 291 292 292 293 293 293 293 294 295 296 297 298 298 298 297 298 303 309 314 316 314 316 322 323 323 324 325 325 325 326 326
286 286 286 286 286 287 287 287 288 288 289 290 290 291 292 292 292 293 293 293 293 295 297 298 298 298 298 298 297 297 298 299 306 310 313 318 320 320 320 322 323 323 326
287 286 286 286 286 286 286 286 286 287 288 289 290 290 291 291 292 293 293 293 293 293 294 295 296 297 297 298 298 299 299 299 298 298 299 305 313 318 316 316 320 322 324
287 286 286 285 285 285 285 285 285 286 286 287 289 289 290 291 291 292 292 293 292 292 293 294 295 295 296 296 298 298 299 299 299 300 300 299 298 300 308 313 316 318 320
287 286 286 285 285 284 284 284 285 285 285 285 286 287 289 290 290 291 291 291 292 292 292 292 293 294 295 295 296 297 298 298 299 299 301 302 302 301 300 299 299 305 312
286 286 286 285 284 284 284 283 283 283 284 284 284 285 286 286 288 289 289 290 291 291 291 291 291 292 293 293 295 295 296 297 298 299 300 302 303 303 303 303 302 300 299
285 285 285 285 284 284 283 283 283 283 283 283 284 284 284 285 285 286 287 288 289 289 289 289 289 289 290 291 292 294 296 296 297 298 299 300 301 303 304 304 304 304 303
284 285 285 285 284 284 283 282 282 282 283 283 284 284 284 285 285 285 286 287 287 287 287 287 288 288 289 289 290 291 292 293 296 296 298 299 300 301 302 303 304 304 304
284 284 284 284 284 283 282 282 282 282 282 283 283 284 284 284 284 285 285 286 286 286 287 287 287 287 288 288 289 290 290 290 292 294 295 296 296 297 298 300 301 302 303
283 283 284 284 284 283 282 282 281 281 282 282 283 283 283 284 284 284 284 285 285 285 286 286 286 286 286 287 288 288 288 289 289 290 290 295 294 297 297 298 299 299 300
282 283 283 283 283 283 282 281 281 281 281 282 282 283 283 283 283 284 284 284 283 284 285 285 285 286 286 286 286 286 287 287 287 287 288 291 293 295 295 298 299 299 298
282 282 282 282 282 282 281 280 280 280 281 282 282 282 282 282 282 283 283 283 283 284 284 284 285 285 285 285 285 285 286 286 286 287 287 288 289 290 292 296 295 296 297
281 281 281 281 281 281 280 280 279 279 280 281 281 281 282 282 282 282 282 283 283 283 283 285 285 285 285 285 284 284 284 285 286 286 287 288 289 289 290 293 294 294 294
Wind_Speed
16 16 18 18 17 18 17 17 17 15 16 16 13 10 9 11 10 7 5 8 6 4 2 0 0 1 2 2 2 5 6 7 9 10 8 5 6 6 5 5 5 6 7
16 17 18 19 19 17 19 19 18 17 15 15 16 15 14 13 13 13 8 9 10 9 7 4 2 1 1 1 2 3 5 6 8 7 9 6 5 4 3 3 4 4 5
15 16 17 17 16 16 16 17 17 18 19 19 19 18 17 17 17 15 13 9 10 12 11 9 6 5 3 4 3 3 3 5 7 7 6 6 5 4 3 1 2 3 4
15 15 16 16 16 15 15 16 16 17 18 18 19 20 20 20 20 19 17 16 12 13 14 13 11 9 8 5 6 7 6 4 6 9 5 5 2 4 4 3 2 1 3
14 13 14 14 14 15 16 16 17 18 18 19 20 20 20 20 20 20 20 19 18 18 18 17 14 13 12 9 7 7 8 8 6 6 7 4 3 2 5 6 5 4 3
13 13 13 13 13 13 14 14 15 16 18 19 20 21 21 21 20 21 22 21 20 19 19 18 18 17 15 14 13 9 9 10 9 7 6 4 4 1 5 6 8 9 6
12 13 12 12 12 12 12 13 13 14 15 15 16 17 17 17 19 20 21 22 22 21 20 18 18 18 17 16 16 14 12 12 12 8 7 6 5 5 4 4 6 9 12
10 11 11 11 11 11 12 12 12 12 13 12 11 10 4 6 9 13 17 19 20 18 17 19 16 16 19 15 14 17 17 15 14 12 10 9 7 8 9 7 6 7 9
9 9 10 10 10 11 11 11 11 11 11 11 9 8 2 3 6 7 5 6 12 15 16 17 19 17 18 20 16 16 19 19 19 15 14 14 13 11 10 11 10 8 8
8 8 8 9 10 10 10 10 11 10 10 11 9 10 11 10 4 1 5 7 11 14 20 23 26 29 27 27 26 23 20 23 21 21 19 18 17 17 15 13 13 13 12
7 7 8 8 8 9 10 10 10 10 10 10 10 10 10 10 10 10 8 8 12 8 15 17 23 24 25 27 25 28 30 29 27 26 26 24 21 21 19 19 17 16 15
6 6 7 8 8 9 10 10 10 10 10 11 11 11 10 8 8 9 10 13 17 17 19 18 17 18 20 22 24 27 27 27 26 29 29 28 28 25 24 24 22 21 19
6 7 7 8 8 9 9 10 11 11 11 11 12 12 11 12 13 13 13 14 14 18 16 13 14 18 20 20 21 26 27 28 31 32 33 31 32 31 31 28 27 26 25
7 7 7 8 8 9 9 10 10 11 11 12 12 12 13 13 14 14 14 14 16 13 15 15 12 12 14 21 25 30 29 31 32 33 35 32 34 35 34 37 35 32 30
7 7 8 8 9 9 10 10 11 12 12 13 13 14 14 15 16 15 16 15 13 9 11 10 9 10 15 17 20 22 25 30 35 34 35 37 36 34 34 37 37 39 39
6 7 8 8 9 9 10 10 11 12 13 13 14 14 15 16 17 17 18 17 17 17 15 10 13 18 21 22 25 26 26 29 29 30 32 37 39 40 40 39 40 42 42
7 7 8 8 9 9 10 11 12 13 13 14 15 16 16 17 18 18 18 18 18 19 25 29 28 28 29 29 29 27 28 28 26 25 28 34 37 40 45 46 44 44 44
8 8 8 9 9 10 10 11 12 13 14 15 16 17 17 17 18 18 18 19 20 21 24 32 31 32 32 32 32 33 32 32 32 30 26 28 32 35 39 43 46 49 49
10 9 9 9 9 10 11 11 12 13 14 15 17 18 18 18 19 19 20 21 22 22 25 30 34 34 35 34 35 35 36 36 34 34 34 32 30 31 33 38 42 45 46
12 10 10 10 11 11 11 12 12 13 14 14 16 17 18 19 19 19 19 21 21 23 25 28 33 33 35 35 33 36 38 36 37 36 37 37 37 36 36 34 36 39 44
14 12 11 11 11 12 11 12 13 14 15 15 15 16 16 18 19 22 22 23 24 27 28 28 31 29 27 26 27 30 37 41 44 43 45 44 42 40 39 39 38 36 39
16 15 13 12 13 13 13 14 14 15 15 15 16 16 16 18 20 20 21 22 24 27 29 30 32 32 31 28 27 29 32 35 44 39 37 41 34 39 41 43 45 45 42
19 17 15 14 14 14 15 16 16 16 16 16 16 17 17 15 17 20 21 21 23 24 27 30 36 35 36 33 33 38 38 41 45 42 38 57 47 53 52 52 49 47 49
20 18 17 16 16 15 17 17 17 17 17 16 16 17 18 19 19 20 23 26 28 28 30 30 32 34 35 36 37 40 44 50 55 51 43 58 49 57 55 55 54 52 50
23 20 18 18 17 16 17 17 15 16 16 15 16 18 19 21 20 19 22 26 28 30 26 25 27 30 32 35 35 38 44 46 51 46 38 45 44 47 48 58 54 52 49
24 22 21 19 18 18 17 16 14 14 15 16 17 17 15 18 19 18 19 22 27 29 29 31 32 32 32 32 29 30 37 44 46 49 37 34 38 36 41 42 36 23 26
Wind_Direction
223 226 231 234 228 220 219 218 216 218 222 230 234 240 255 254 245 209 254 271 259 260 284 180 240 338 348 34 54 45 34 26 18 16 357 356 9 21 49 49 58 44 46
225 225 230 237 236 227 229 226 227 225 230 233 234 246 251 260 264 259 227 266 262 257 256 269 303 290 296 311 4 7 27 26 28 19 14 353 360 1 40 41 34 44 38
228 229 231 233 235 236 232 236 234 240 240 245 246 244 250 254 257 261 260 239 268 257 258 259 268 287 302 284 273 287 335 357 13 19 11 14 336 338 333 322 16 7 25
229 229 230 231 233 237 236 236 238 241 245 248 252 254 254 254 256 258 257 257 250 256 256 253 257 264 277 288 273 270 278 307 350 2 358 360 335 315 302 302 285 314 336
231 234 233 236 239 240 242 243 245 245 248 252 257 260 260 261 260 258 260 258 255 253 254 260 257 260 262 272 280 289 275 274 307 344 360 339 316 293 306 296 278 281 268
230 231 236 238 243 244 247 248 250 252 254 256 258 261 263 264 263 262 260 258 259 258 256 248 256 257 259 262 267 272 286 277 276 300 331 317 313 271 276 289 287 274 272
231 234 236 239 240 246 249 253 254 256 258 264 267 267 271 272 265 260 256 254 253 255 254 250 253 253 260 260 257 262 264 277 274 286 297 314 273 285 285 278 263 271 270
239 241 241 244 244 244 248 255 257 258 260 262 266 277 292 283 278 259 248 246 246 253 261 257 251 254 255 251 265 254 257 259 267 273 273 281 293 272 271 280 283 249 259
241 243 244 244 243 248 247 250 255 257 262 262 256 244 238 201 261 287 257 228 230 227 234 234 230 233 240 239 238 252 256 252 258 261 268 274 276 279 281 268 272 276 255
252 254 250 250 248 248 248 247 248 250 250 256 255 243 239 245 234 152 288 242 248 229 245 240 243 246 251 255 254 253 250 257 254 255 256 262 270 274 275 277 265 269 274
265 260 260 257 254 254 255 252 250 247 247 250 250 251 246 247 248 244 239 240 263 252 248 247 247 251 253 255 261 261 257 257 253 253 252 254 257 260 267 274 271 267 270
267 262 260 262 258 256 254 257 256 253 251 250 253 250 247 236 228 241 256 266 266 263 257 261 258 255 258 260 260 260 259 259 259 258 252 250 253 253 255 260 266 268 266
280 277 274 269 267 265 264 260 259 259 257 254 253 251 253 251 250 256 262 271 280 284 281 275 261 252 251 253 255 252 253 257 256 256 253 250 251 251 252 252 255 259 262
278 280 280 279 278 275 270 269 268 265 261 259 259 261 262 263 263 261 261 268 288 284 287 293 271 267 253 246 249 252 252 255 256 257 252 254 250 253 254 258 260 256 253
289 290 287 284 282 279 277 273 268 266 266 267 267 264 264 263 263 265 265 266 266 282 282 266 272 259 255 253 258 266 262 259 259 259 260 255 254 254 255 255 256 257 255
295 298 292 293 291 288 282 277 273 271 268 267 268 267 264 265 267 267 266 267 263 260 263 270 253 254 268 273 274 273 271 270 268 265 262 259 257 257 256 258 255 252 256
293 292 294 295 292 291 287 282 278 276 274 271 270 270 268 268 268 269 270 269 266 265 267 276 276 278 281 285 285 283 284 281 277 271 268 265 263 260 257 257 256 255 254
286 294 298 298 295 292 288 286 283 278 277 274 270 269 270 270 270 269 268 269 269 267 271 278 282 282 283 286 288 291 289 287 289 286 276 265 262 263 263 262 259 257 255
277 282 286 288 290 292 292 290 287 283 278 274 270 269 268 265 266 268 269 269 270 272 273 277 283 283 285 287 289 289 291 292 287 287 284 280 272 264 261 261 263 262 259
264 270 277 284 290 292 292 290 286 282 279 277 275 273 271 269 268 269 270 271 274 274 274 275 278 282 286 289 289 292 292 290 290 287 284 283 282 278 271 263 262 264 263
257 265 273 280 286 289 290 287 286 285 285 283 281 281 280 277 268 264 264 264 267 271 278 285 287 289 289 294 294 291 285 286 284 286 288 288 287 281 276 271 268 259 259
253 259 266 276 283 287 290 293 293 291 289 286 286 284 280 278 281 280 276 272 271 274 276 277 281 282 285 287 288 287 287 289 290 286 288 282 279 279 280 280 279 276 270
251 258 266 274 279 285 291 296 298 296 292 289 286 285 284 282 277 279 279 278 275 273 270 275 276 277 282 283 284 283 279 279 278 281 285 284 284 283 283 282 278 276 277
248 254 262 269 275 282 289 295 299 298 294 290 287 288 287 285 282 283 279 276 275 276 276 277 276 280 280 281 279 280 281 281 281 279 277 278 280 279 281 281 282 282 281
246 253 259 264 271 279 286 292 297 295 292 287 284 284 283 284 285 285 285 283 285 286 288 285 281 279 277 276 277 280 276 277 279 278 274 274 278 280 282 286 284 282 283
244 248 254 261 269 276 283 291 294 293 290 289 287 286 279 274 280 281 286 290 289 289 291 290 291 290 291 291 288 278 274 273 274 281 286 270 274 273 285 287 292 282 277